Preview of NWS' New Version of Forecast
This preview is not operational and should not be used for support decisions.

Regional Weather Roundup (RWR)

Issued by National Weather Service (NWS)

                            
000
ASUS43 KMKX 230311
RWRWI 

WISCONSIN REGIONAL WEATHER ROUNDUP
NATIONAL WEATHER SERVICE MILWAUKEE/SULLIVAN WI
1000 PM CDT MON JUL 22 2019

NOTE: "FAIR" INDICATES FEW OR NO CLOUDS BELOW 12,000 FEET WITH NO
SIGNIFICANT WEATHER AND/OR OBSTRUCTIONS TO VISIBILITY.

WIZ001-002-006>008-014>016-023>028-230400-
NORTHWEST WISCONSIN
  
CITY           SKY/WX    TMP DP  RH WIND       PRES   REMARKS
SUPERIOR ARPT  FAIR      69  56  63 W6        30.15R                  
ASHLAND        CLOUDY    65  58  78 W6        30.12R                  
HAYWARD        FAIR      62  58  86 CALM      30.16R                  
SIREN          FAIR      64  57  76 NW5       30.19R                  
CUMBERLAND     NOT AVBL                                               
RICE LAKE      FAIR      64  56  73 W5        30.18R                  
CHETEK         MOCLDY    67  57  68 W3        30.17R                  
LADYSMITH      FAIR      65  58  77 W3        30.17R                  
EAU CLAIRE     FAIR      67  55  65 W8        30.16R                  
MENOMONIE      FAIR      64  55  71 W6        30.18R                  
NEW RICHMOND   FAIR      62  55  78 CALM      30.19S                  
OSCEOLA        FAIR      67  56  68 W3        30.21S                  
$$
 
WIZ003>005-009-010-017-018-230400-
NORTH CENTRAL WISCONSIN
  
CITY           SKY/WX    TMP DP  RH WIND       PRES   REMARKS
MANITOWISH WTR FAIR      56  56 100 CALM      30.13S                  
ARBOR VITAE    FAIR      60  56  88 CALM      30.13S                  
WOODRUFF       FAIR      60  56  88 CALM      30.13S                  
RHINELANDER    FAIR      56  53  90 W5        30.14S                  
EAGLE RIVER    FAIR      56  50  82 CALM      30.12S                  
LAND O LAKES   FAIR      55  53  94 CALM      30.13F                  
PHILLIPS       MOCLDY    64  56  77 CALM      30.14S                  
TOMAHAWK       MOCLDY    57  54  91 CALM      30.15R                  
MEDFORD        FAIR      62  54  76 W5        30.15S                  
MERRILL        FAIR      61  57  86 CALM      30.14S                  
$$
 
WIZ029-030-035-036-043>047-230400-
CENTRAL WISCONSIN
  
CITY           SKY/WX    TMP DP  RH WIND       PRES   REMARKS
WAUSAU         FAIR      66  55  67 NW3       30.12R                  
MOSINEE        CLEAR     64  55  72 W5        30.15R                  
MARSHFIELD     FAIR      63  54  72 NW5       30.15R                  
STEVENS POINT  MOCLDY    65  54  68 CALM      30.14R                  
WAUPACA        NOT AVBL                                               
WAUTOMA        FAIR      63  57  81 NW6       30.13R                  
WISC RAPIDS    FAIR      65  56  72 W5        30.14R                  
CAMP DOUGLAS   PTCLDY    64  54  68 W5        30.14R                  
$$
 
WIZ011>013-019>022-031-037>040-048>050-230400-
NORTHEAST WISCONSIN
  
CITY           SKY/WX    TMP DP  RH WIND       PRES   REMARKS
ANTIGO         FAIR      60  55  81 NW3       30.14S                  
SHAWANO        FAIR      67  53  60 NW5       30.10R                  
OCONTO         FAIR      60  53  77 CALM      30.09R                  
STURGEON BAY   FAIR      66  55  67 NE5       30.09R                  
GREEN BAY      FAIR      68  57  68 N7        30.09R                  
MANITOWOC      MOCLDY    66  56  70 NW6       30.08R                  
APPLETON       PTCLDY    66  48  52 NW6       30.09R                  
CLINTONVILLE   FAIR      67  51  56 NW5       30.11R                  
OSHKOSH        FAIR      68  55  63 W7        30.09R                  
$$
 
WIZ032>034-041-042-053>061-230400-
SOUTHWEST WISCONSIN
  
CITY           SKY/WX    TMP DP  RH WIND       PRES   REMARKS
LA CROSSE      FAIR      68  57  68 NE3       30.16R                  
SPARTA         FAIR      58  56  92 CALM      30.17R                  
VIROQUA        FAIR      64  57  77 W3        30.18R                  
BOSCOBEL       FAIR      61  57  87 CALM      30.16R                  
PRAIRIE DU CHI FAIR      63  56  79 CALM      30.16R                  
PLATTEVILLE    FAIR      64  58  83 W3        30.17R                  
$$

WIZ056-057-062-063-064-067-068-230400-
SOUTH CENTRAL WISCONSIN
  
CITY           SKY/WX    TMP DP  RH WIND       PRES   REMARKS
REEDSBURG      FAIR      65  57  75 NW3       30.14R                  
BARABOO/DELLS  FAIR      64  54  70 W3        30.14R                  
LONE ROCK      FAIR      63  57  81 W5        30.14R                  
MINERAL POINT  FAIR      63  55  77 NW3       30.16R                  
MADISON        FAIR      67  54  63 W5        30.12R                  
MIDDLETON      FAIR      63  56  77 CALM      30.14R                  
WATERTOWN      NOT AVBL                                               
MONROE         FAIR      66  51  58 NW7       30.14R                  
JANESVILLE     FAIR      61  55  82 CALM      30.13R                  
$$
 
WIZ051-052-058>065-066-070>072-230400-
SOUTHEAST WISCONSIN
  
CITY           SKY/WX    TMP DP  RH WIND       PRES   REMARKS
MILWAUKEE      FAIR      69  50  50 CALM      30.09R                  
WAUKESHA       FAIR      61  50  67 W3        30.12R                  
MILWAUKEE/TIMM FAIR      64  48  55 CALM      30.10S                  
RACINE         FAIR      61  52  72 W5        30.11R                  
KENOSHA        FAIR      61  56  83 W3        30.10S                  
FOND DU LAC    MOCLDY    70  55  59 W8        30.10R                  
SHEBOYGAN      FAIR      64  55  72 W5        30.07S                  
WEST BEND      FAIR      63  50  63 W5        30.09S                  
JUNEAU         MOCLDY    62  56  79 CALM      30.12R                  
$$

LSZ147-162-230400-
LAKE SUPERIOR
  
STATION/POSITION TIME  TEMP    WIND        PRES    WAVE
                       AIR SEA DIR/SP/G            HT/PER
                 (UTC) (F)     (DEG/KT/KT) (MB)    (FT/S)
W MID LAKE BUOY  0250   61 49  340/ 19/ 25 1018.3R   1/ 3
$$
 
LMZ867-665-643>646-230400-
LAKE MICHIGAN
  
STATION/POSITION TIME  TEMP    WIND        PRES    WAVE
                       AIR SEA DIR/SP/G            HT/PER
                 (UTC) (F)     (DEG/KT/KT) (MB)    (FT/S)
CHAMBERS ISLAND  0240   66     230/  1/  5 1017.9S
S GREEN BAY BUOY 0230   76 73   40/ 12/ 16 1018.6R
N MID LAKE BUOY  0250   66 65   CALM  /  2 1018.1R   2/ 4
NORTHPORT PIER   0240   64        CALM     1017.9R
KEWAUNEE LAKESHO 0230   69      10/  4/  9 1017.7R
SHEBOYGAN LAKESH 0300   70     260/  6/  8 1017.8R
ATWATER BUOY     0230   66 67  230/  2/  4 1019.0S   2/ 5
MILWAUKEE LAKESH 0250   67     210/  1/  2   N/A
S MID LAKE BUOY  0250   67 68  330/  8/ 10 1018.8R   3/ 6
KENOSHA   LAKESH 0300   68     290/  5/  5 1019.0
$$

TC  - TEMPERATURE IN CELSIUS
VSB - VISIBILITY IN STATUTE MILES
WCI - WIND CHILL INDEX
HX  - HEAT INDEX